1500926401.15,48793,21.38,73432.3,5.71,4.45,4.57,0,*7C
1500926402.34,48794,21.38,73432.0,5.67,4.49,4.59,0,*7E
1500926403.59,48795,21.38,73428.0,5.69,4.63,4.67,0,*74
1500926404.81,48796,21.38,73414.5,5.69,4.57,4.67,0,*70
1500926406.01,48797,21.38,73410.8,5.67,4.57,4.67,0,*7F
1500926407.23,48798,21.44,73414.8,5.69,4.57,4.63,0,*7A
1500926408.46,48799,21.38,73416.5,5.69,4.53,4.63,0,*7F
1500926409.62,48800,21.38,73416.5,5.67,4.49,4.49,0,*7D
1500926410.82,48801,21.38,73422.0,5.67,4.41,4.59,0,*75
1500926412.04,48802,21.38,73426.3,5.69,4.45,4.63,0,*75
1500926413.21,48803,21.38,73420.8,5.67,4.41,4.53,0,*7D
1500926414.41,48804,21.38,73420.8,5.67,4.41,4.59,0,*70
1500926415.63,48805,21.38,73424.5,5.69,4.53,4.63,0,*75
1500926416.87,48806,21.38,73426.0,5.67,4.59,4.71,0,*71
1500926418.09,48807,21.38,73430.5,5.69,4.57,4.67,0,*77
1500926419.28,48808,21.38,73428.8,5.67,4.49,4.59,0,*74
1500926420.47,48809,21.38,73426.8,5.71,4.45,4.63,0,*77
1500926421.64,48810,21.38,73428.8,5.67,4.49,4.53,0,*77
1500926422.84,48811,21.38,73420.0,5.69,4.41,4.57,0,*74
1500926424.01,48812,21.38,73422.0,5.67,4.49,4.53,0,*75
1500926425.21,48813,21.38,73416.3,5.69,4.53,4.57,0,*75
1500926426.38,48814,21.38,73412.5,5.67,4.41,4.53,0,*7B
1500926427.6,48815,21.38,73414.8,5.69,4.45,4.63,0,*73
1500926428.83,48816,21.38,73418.5,5.69,4.53,4.67,0,*73
1500926430.05,48817,21.38,73414.8,5.69,4.57,4.75,0,*75
1500926431.28,48818,21.38,73416.5,5.69,4.57,4.75,0,*7A
1500926432.5,48819,21.38,73416.0,5.69,4.57,4.67,0,*78
1500926433.7,48820,21.38,73414.8,5.67,4.53,4.63,0,*7C
1500926434.95,48821,21.38,73416.0,5.69,4.63,4.75,0,*77
1500926436.2,48822,21.38,73420.8,5.69,4.63,4.79,0,*78
1500926437.39,48823,21.38,73414.8,5.67,4.49,4.59,0,*7D
1500926438.56,48824,21.38,73412.3,5.67,4.49,4.53,0,*70
1500926439.73,48825,21.38,73412.3,5.67,4.41,4.53,0,*79
1500926440.9,48826,21.38,73408.3,5.71,4.45,4.57,0,*7D
1500926442.1,48827,21.38,73408.3,5.69,4.19,4.45,0,*7F
1500926443.3,48828,21.38,73408.8,5.69,3.93,4.45,0,*75
1500926444.49,48829,21.38,73404.0,5.69,3.85,4.45,0,*73
1500926445.69,48830,21.38,73400.5,5.69,3.85,4.53,0,*7C
1500926446.91,48831,21.38,73404.3,5.69,3.97,4.53,0,*7E
1500926448.11,48832,21.38,73406.8,5.69,3.93,4.53,0,*79
1500926449.31,48833,21.38,73406.8,5.69,3.93,4.45,0,*7F
1500926450.48,48834,21.38,73406.0,5.67,3.85,4.53,0,*76
1500926451.66,48835,21.38,73406.3,5.67,3.81,4.41,0,*70
1500926452.86,48836,21.38,73406.3,5.69,3.81,4.41,0,*7D
1500926454.06,48837,21.38,73410.0,5.69,3.93,4.45,0,*7B
1500926455.28,48838,21.38,73406.3,5.69,3.97,4.57,0,*73
1500926456.48,48839,21.38,73406.5,5.69,3.93,4.53,0,*72
1500926457.66,48840,21.38,73408.8,5.67,3.89,4.41,0,*7A
1500926458.86,48841,21.38,73410.8,5.69,3.93,4.53,0,*7D
1500926460.08,48842,21.38,73412.3,5.69,3.97,4.53,0,*7A
1500926461.31,48843,21.38,73414.0,5.69,3.93,4.63,0,*7C
1500926462.53,48844,21.38,73414.0,5.69,3.93,4.63,0,*7B
1500926463.73,48845,21.38,73412.3,5.69,3.81,4.45,0,*7D
1500926464.9,48846,21.38,73414.8,5.71,3.81,4.41,0,*73
1500926466.1,48847,21.38,73410.5,5.69,3.81,4.45,0,*7F
1500926467.3,48848,21.38,73410.3,5.69,3.93,4.53,0,*74
1500926468.52,48849,21.38,73416.3,5.69,3.97,4.53,0,*71
1500926469.74,48850,21.38,73422.5,5.69,3.97,4.53,0,*79
1500926470.91,48851,21.38,73420.8,5.71,3.85,4.41,0,*71
1500926472.08,48852,21.38,73424.8,5.71,3.85,4.41,0,*72
1500926473.29,48853,21.38,73424.3,5.69,3.93,4.33,0,*78
1500926474.46,48854,21.38,73426.0,5.71,3.93,4.53,0,*70
1500926475.68,48855,21.38,73426.3,5.71,3.97,4.63,0,*76
1500926476.85,48856,21.38,73424.3,5.71,3.93,4.53,0,*72
1500926478.02,48857,21.38,73424.5,5.71,3.81,4.45,0,*77
1500926479.2,48858,21.38,73424.0,5.71,3.81,4.45,0,*78
1500926480.37,48859,21.38,73420.5,5.71,3.85,4.45,0,*7D
1500926481.54,48860,21.38,73420.8,5.71,3.85,4.45,0,*77
1500926482.71,48861,21.38,73416.8,5.71,3.81,4.41,0,*76
1500926483.91,48862,21.38,73420.3,5.69,3.85,4.53,0,*7B
1500926485.1,48863,21.38,73412.5,5.69,3.81,4.53,0,*7E
1500926486.3,48864,21.38,73412.3,5.69,3.93,4.53,0,*7A
1500926487.5,48865,21.38,73414.8,5.69,3.93,4.57,0,*7F
1500926488.7,48866,21.38,73416.8,5.69,3.81,4.53,0,*7B
1500926489.9,48867,21.38,73416.5,5.69,3.85,4.53,0,*7E
1500926491.07,48868,21.38,73414.5,5.71,3.85,4.45,0,*7F
1500926492.24,48869,21.38,73414.0,5.71,3.81,4.45,0,*7A
1500926493.43,48870,21.38,73418.8,5.73,3.85,4.45,0,*74
1500926494.63,48871,21.38,73416.0,5.69,3.81,4.41,0,*7E
1500926495.86,48872,21.38,73418.8,5.69,3.75,4.33,0,*73
1500926497.07,48873,21.38,73418.5,5.71,3.75,4.41,0,*7E
1500926498.27,48874,21.38,73416.0,5.69,3.81,4.33,0,*7E
1500926499.49,48875,21.38,73418.3,5.69,3.71,4.33,0,*70
1500926500.71,48876,21.38,73422.5,5.69,3.63,4.31,0,*72
1500926501.91,48877,21.38,73424.0,5.69,3.59,4.23,0,*79
1500926503.1,48878,21.38,73418.8,5.71,3.63,4.31,0,*75
1500926504.3,48879,21.38,73422.8,5.71,3.63,4.31,0,*74
1500926505.5,48880,21.38,73426.8,5.71,3.71,4.33,0,*73
1500926506.7,48881,21.38,73426.0,5.71,3.75,4.41,0,*73
1500926507.93,48882,21.38,73426.5,5.69,3.75,4.33,0,*7C
1500926509.16,48883,21.38,73420.3,5.73,3.79,4.37,0,*7E
1500926510.36,48884,21.38,73422.8,5.71,3.75,4.45,0,*72
1500926511.56,48885,21.38,73420.8,5.71,3.79,4.37,0,*7A
1500926512.73,48886,21.38,73422.0,5.71,3.81,4.45,0,*7B
1500926513.93,48887,21.38,73424.3,5.69,3.85,4.45,0,*77
1500926515.13,48888,21.38,73426.0,5.71,3.75,4.33,0,*7F
1500926516.34,48889,21.38,73424.5,5.71,3.75,4.41,0,*7B
1500926517.53,48890,21.38,73420.5,5.69,3.85,4.41,0,*75
1500926518.7,48891,21.38,73420.0,5.71,3.85,4.53,0,*7E
1500926519.91,48892,21.38,73426.0,5.69,3.93,4.53,0,*73
1500926521.12,48893,21.38,73426.0,5.69,3.97,4.53,0,*76
1500926522.33,48894,21.38,73424.5,5.69,3.93,4.57,0,*71
1500926523.52,48895,21.38,73422.5,5.69,3.81,4.53,0,*77
1500926524.72,48896,21.38,73418.3,5.73,3.85,4.49,0,*70
1500926525.89,48897,21.38,73416.5,5.71,3.85,4.53,0,*78
1500926527.06,48898,21.38,73412.5,5.71,3.81,4.53,0,*73
1500926528.23,48899,21.38,73404.8,5.71,3.85,4.53,0,*76
1500926529.42,48900,21.38,73404.0,5.73,3.85,4.49,0,*7E
1500926530.59,48901,21.38,73404.8,5.71,3.81,4.45,0,*75
1500926531.81,48902,21.38,73406.0,5.73,3.79,4.45,0,*73
1500926533.02,48903,21.38,73404.0,5.71,3.75,4.41,0,*78
1500926534.19,48904,21.38,73404.3,5.71,3.81,4.45,0,*70
1500926535.36,48905,21.38,73408.8,5.71,3.81,4.45,0,*71
1500926536.53,48906,21.38,73408.8,5.71,3.85,4.45,0,*76
1500926537.7,48907,21.38,73410.0,5.71,3.81,4.53,0,*74
1500926538.87,48908,21.38,73412.5,5.71,3.81,4.53,0,*7B
1500926540.05,48909,21.38,73408.0,5.71,3.93,4.53,0,*79
1500926541.22,48910,21.38,73408.8,5.71,3.81,4.33,0,*74
1500926542.42,48911,21.38,73412.3,5.71,3.71,4.33,0,*7A
1500926543.61,48912,21.38,73408.8,5.69,3.59,4.23,0,*7B
1500926544.83,48913,21.38,73410.0,5.69,3.63,4.31,0,*70
1500926546.03,48914,21.38,73412.5,5.71,3.71,4.41,0,*7A
1500926547.23,48915,21.38,73410.8,5.71,3.71,4.45,0,*7F
1500926548.43,48916,21.38,73412.8,5.71,3.71,4.45,0,*7C
1500926549.63,48917,21.38,73418.3,5.71,3.71,4.41,0,*79
1500926550.83,48918,21.38,73418.8,5.71,3.71,4.41,0,*76
1500926552.05,48919,21.38,73414.8,5.73,3.79,4.49,0,*75
1500926553.25,48920,21.38,73416.5,5.71,3.75,4.53,0,*7A
1500926554.45,48921,21.38,73418.3,5.71,3.75,4.53,0,*7B
1500926555.67,48922,21.38,73418.3,5.73,3.85,4.59,0,*7F
1500926556.85,48923,21.38,73420.3,5.71,3.81,4.57,0,*76
1500926558.05,48924,21.38,73416.5,5.71,3.75,4.45,0,*79
1500926559.25,48925,21.38,73416.8,5.71,3.75,4.53,0,*7F
1500926560.45,48926,21.38,73420.3,5.71,3.75,4.45,0,*7B
1500926561.62,48927,21.38,73426.3,5.71,3.81,4.53,0,*76
1500926562.82,48928,21.38,73424.3,5.73,3.85,4.57,0,*7B
1500926564.02,48929,21.38,73426.0,5.71,3.75,4.53,0,*73
1500926565.19,48930,21.38,73426.0,5.71,3.81,4.57,0,*74
1500926566.39,48931,21.38,73424.3,5.73,3.85,4.57,0,*73
1500926567.59,48932,21.38,73420.8,5.71,3.75,4.53,0,*79
1500926568.8,48933,21.38,73426.3,5.71,3.75,4.53,0,*78
1500926569.99,48934,21.38,73424.3,5.73,3.85,4.57,0,*76
1500926571.19,48935,21.38,73416.5,5.73,3.85,4.49,0,*78
1500926572.41,48936,21.38,73420.3,5.73,3.75,4.49,0,*74
1500926573.64,48937,21.38,73422.5,5.73,3.75,4.49,0,*75
1500926574.86,48938,21.38,73422.5,5.73,3.71,4.45,0,*72
1500926576.09,48939,21.38,73422.8,5.73,3.75,4.37,0,*72
1500926577.32,48940,21.38,73424.5,5.73,3.67,4.45,0,*7A
1500926578.52,48941,21.38,73420.0,5.71,3.75,4.41,0,*7E
1500926579.69,48942,21.38,73424.3,5.71,3.63,4.33,0,*7F
1500926580.86,48943,21.38,73422.5,5.71,3.63,4.33,0,*7E
1500926582.04,48944,21.38,73418.0,5.71,3.63,4.41,0,*7C
1500926583.27,48945,21.38,73418.3,5.73,3.67,4.37,0,*7A
1500926584.5,48946,21.38,73416.0,5.73,3.75,4.37,0,*7A
1500926585.67,48947,21.38,73416.3,5.71,3.59,4.33,0,*73
1500926586.84,48948,21.38,73414.8,5.71,3.63,4.33,0,*75
1500926588.07,48949,21.38,73410.5,5.73,3.75,4.49,0,*7C
1500926589.3,48950,21.38,73418.5,5.73,3.75,4.37,0,*7D
1500926590.49,48951,21.38,73420.3,5.71,3.59,4.31,0,*76
1500926591.72,48952,21.38,73420.3,5.73,3.67,4.37,0,*7C
1500926592.92,48953,21.38,73416.8,5.73,3.63,4.33,0,*7D
1500926594.13,48954,21.38,73416.5,5.71,3.67,4.41,0,*79
1500926595.35,48955,21.38,73418.0,5.73,3.75,4.49,0,*71
1500926596.55,48956,21.38,73418.3,5.71,3.71,4.41,0,*7C
1500926597.72,48957,21.38,73420.8,5.71,3.63,4.33,0,*7B
1500926598.92,48958,21.38,73412.3,5.73,3.55,4.33,0,*73
1500926600.11,48959,21.38,73414.8,5.71,3.63,4.31,0,*77
1500926601.31,48960,21.38,73420.8,5.71,3.71,4.33,0,*7C
1500926602.48,48961,21.38,73416.0,5.71,3.59,4.33,0,*77
1500926603.68,48962,21.38,73422.5,5.73,3.63,4.33,0,*7F
1500926604.9,48963,21.38,73424.3,5.71,3.53,4.31,0,*7D
1500926606.09,48964,21.38,73430.3,5.71,3.63,4.31,0,*79
1500926607.3,48965,21.38,73422.0,5.71,3.67,4.37,0,*7A
1500926608.47,48966,21.38,73420.3,5.71,3.63,4.41,0,*7C
1500926609.64,48967,21.38,73418.5,5.71,3.59,4.33,0,*71
1500926610.81,48968,21.38,73418.8,5.71,3.63,4.41,0,*72
1500926611.99,48969,21.38,73422.3,5.71,3.63,4.41,0,*73
1500926613.16,48970,21.38,73420.0,5.71,3.63,4.33,0,*7E
1500926614.33,48971,21.38,73420.3,5.71,3.63,4.33,0,*7F
1500926615.5,48972,21.38,73420.0,5.71,3.63,4.33,0,*7C
1500926616.73,48973,21.38,73424.5,5.73,3.67,4.37,0,*7F
1500926617.9,48974,21.38,73420.8,5.71,3.63,4.41,0,*7F
1500926619.08,48975,21.38,73420.0,5.71,3.59,4.41,0,*77
1500926620.31,48976,21.38,73420.3,5.73,3.67,4.37,0,*7A
1500926621.54,48977,21.38,73422.5,5.73,3.67,4.33,0,*7F
1500926622.77,48978,21.38,73418.5,5.73,3.67,4.37,0,*74
1500926623.97,48979,21.38,73414.8,5.71,3.71,4.41,0,*71
1500926625.14,48980,21.38,73414.3,5.71,3.63,4.41,0,*74
1500926626.34,48981,21.38,73408.5,5.71,3.71,4.45,0,*72
1500926627.54,48982,21.38,73404.5,5.71,3.75,4.53,0,*72
1500926628.74,48983,21.38,73398.0,5.71,3.71,4.45,0,*70
1500926629.94,48984,21.38,73398.3,5.71,3.71,4.41,0,*73
1500926631.13,48985,21.38,73398.5,5.71,3.71,4.45,0,*76
1500926632.33,48986,21.38,73402.0,5.71,3.75,4.45,0,*71
1500926633.53,48987,21.38,73402.5,5.71,3.75,4.45,0,*70
1500926634.74,48988,21.38,73404.0,5.71,3.75,4.53,0,*78
1500926635.94,48989,21.38,73400.8,5.71,3.75,4.41,0,*7A
1500926637.14,48990,21.38,73400.5,5.71,3.71,4.41,0,*76
1500926638.34,48991,21.38,73400.5,5.71,3.71,4.45,0,*73
1500926639.54,48992,21.38,73400.5,5.71,3.75,4.41,0,*70
1500926640.74,48993,21.38,73396.3,5.71,3.71,4.45,0,*71
1500926641.94,48994,21.38,73400.3,5.71,3.71,4.45,0,*76
1500926643.16,48995,21.38,73400.5,5.73,3.75,4.45,0,*71
1500926644.37,48996,21.38,73406.3,5.71,3.67,4.41,0,*77
1500926645.57,48997,21.38,73402.3,5.71,3.75,4.41,0,*75
1500926646.77,48998,21.38,73408.8,5.71,3.75,4.45,0,*7E
1500926647.94,48999,21.38,73406.3,5.71,3.63,4.45,0,*78
1500926649.16,49000,21.38,73408.3,5.73,3.79,4.49,0,*75
1500926650.36,49001,21.38,73410.5,5.71,3.71,4.45,0,*72
1500926651.56,49002,21.38,73414.3,5.71,3.75,4.57,0,*76
1500926652.76,49003,21.38,73402.3,5.73,3.85,4.49,0,*75
1500926653.95,49004,21.38,73404.8,5.73,3.85,4.57,0,*7D
1500926655.15,49005,21.38,73410.3,5.71,3.71,4.53,0,*71
1500926656.35,49006,21.38,73408.0,5.75,3.75,4.49,0,*79
1500926657.58,49007,21.38,73406.0,5.73,3.67,4.45,0,*71
1500926658.78,49008,21.38,73410.3,5.71,3.71,4.33,0,*7A
1500926660.01,49009,21.38,73406.8,5.73,3.75,4.45,0,*7C
1500926661.21,49010,21.38,73406.3,5.71,3.71,4.33,0,*73
1500926662.38,49011,21.38,73406.0,5.71,3.63,4.41,0,*74
1500926663.61,49012,21.38,73400.8,5.73,3.75,4.37,0,*73
1500926664.84,49013,21.38,73400.0,5.73,3.75,4.45,0,*77
1500926666.04,49014,21.38,73396.3,5.71,3.71,4.45,0,*76
1500926667.24,49015,21.38,73396.5,5.71,3.75,4.41,0,*77
1500926668.41,49016,21.38,73396.8,5.71,3.63,4.33,0,*76
1500926669.58,49017,21.38,73394.8,5.71,3.59,4.41,0,*7B
1500926670.76,49018,21.38,73402.0,5.71,3.63,4.41,0,*7D
1500926671.99,49019,21.38,73400.0,5.73,3.67,4.37,0,*7B
1500926673.16,49020,21.38,73396.3,5.71,3.59,4.33,0,*7A
1500926674.33,49021,21.38,73402.0,5.71,3.63,4.41,0,*77
1500926675.53,49022,21.38,73406.3,5.73,3.63,4.37,0,*77
1500926676.7,49023,21.38,73404.5,5.71,3.63,4.41,0,*75
1500926677.9,49024,21.38,73408.8,5.71,3.71,4.41,0,*71
1500926679.1,49025,21.38,73414.0,5.71,3.75,4.53,0,*77
1500926680.3,49026,21.38,73414.0,5.71,3.75,4.53,0,*74
1500926681.53,49027,21.38,73414.3,5.73,3.79,4.57,0,*7F
1500926682.7,49028,21.38,73412.3,5.71,3.81,4.57,0,*75
1500926683.88,49029,21.38,73408.5,5.71,3.81,4.57,0,*74
1500926685.08,49030,21.38,73412.3,5.71,3.75,4.53,0,*73
1500926686.28,49031,21.38,73414.0,5.73,3.85,4.57,0,*7B
1500926687.48,49032,21.38,73412.3,5.71,3.75,4.57,0,*75
1500926688.71,49033,21.38,73412.5,5.73,3.75,4.45,0,*75
1500926689.93,49034,21.38,73414.0,5.73,3.75,4.49,0,*7E
1500926691.18,49035,21.38,73412.0,5.77,3.79,4.59,0,*76
1500926692.4,49036,21.38,73414.5,5.73,3.75,4.49,0,*7C
1500926693.63,49037,21.38,73414.5,5.73,3.67,4.45,0,*72
1500926694.83,49038,21.38,73420.0,5.71,3.71,4.41,0,*7C
1500926696.06,49039,21.38,73416.0,5.73,3.79,4.57,0,*70
1500926697.28,49040,21.38,73420.0,5.73,3.71,4.57,0,*76
1500926698.51,49041,21.38,73418.8,5.75,3.79,4.59,0,*77
1500926699.71,49042,21.38,73420.5,5.75,3.79,4.57,0,*7A
1500926700.91,49043,21.38,73416.5,5.71,3.75,4.45,0,*70
1500926702.14,49044,21.38,73418.5,5.73,3.75,4.57,0,*76
1500926703.34,49045,21.38,73418.8,5.71,3.67,4.45,0,*75
1500926704.54,49046,21.38,73416.0,5.73,3.63,4.37,0,*75
1500926705.77,49047,21.38,73412.5,5.73,3.67,4.37,0,*70
1500926706.94,49048,21.38,73412.3,5.71,3.59,4.33,0,*74
1500926708.12,49049,21.38,73408.3,5.71,3.59,4.33,0,*75
1500926709.32,49050,21.38,73404.5,5.73,3.63,4.37,0,*72
1500926710.51,49051,21.38,73408.3,5.73,3.63,4.37,0,*73
1500926711.74,49052,21.38,73410.0,5.73,3.67,4.45,0,*71
1500926712.91,49053,21.38,73410.0,5.71,3.63,4.33,0,*77
1500926714.11,49054,21.38,73408.0,5.73,3.63,4.37,0,*76
1500926715.31,49055,21.38,73412.3,5.73,3.63,4.37,0,*77
1500926716.48,49056,21.38,73412.3,5.71,3.63,4.41,0,*77
1500926717.68,49057,21.38,73416.0,5.73,3.63,4.37,0,*75
1500926718.91,49058,21.38,73416.0,5.73,3.67,4.45,0,*7B
1500926720.11,49059,21.38,73420.3,5.71,3.67,4.41,0,*7C
1500926721.34,49060,21.38,73418.8,5.73,3.67,4.45,0,*70
1500926722.55,49061,21.38,73414.8,5.75,3.67,4.37,0,*72
1500926723.72,49062,21.38,73410.5,5.75,3.63,4.45,0,*70
1500926724.89,49063,21.38,73406.8,5.71,3.59,4.33,0,*7D
1500926726.06,49064,21.38,73404.5,5.71,3.63,4.41,0,*76
1500926727.23,49065,21.38,73408.3,5.71,3.63,4.33,0,*72
1500926728.44,49066,21.38,73406.8,5.75,3.67,4.37,0,*75
1500926729.67,49067,21.38,73406.0,5.73,3.67,4.45,0,*77
1500926730.84,49068,21.38,73404.8,5.71,3.59,4.33,0,*76
1500926732.04,49069,21.38,73410.3,5.73,3.63,4.33,0,*7C
1500926733.25,49070,21.38,73402.5,5.73,3.53,4.27,0,*72
1500926734.47,49071,21.38,73404.3,5.71,3.53,4.31,0,*76
1500926735.64,49072,21.38,73410.5,5.75,3.63,4.33,0,*70
1500926736.84,49073,21.38,73410.0,5.71,3.71,4.45,0,*77
1500926738.04,49074,21.38,73408.3,5.71,3.75,4.41,0,*70
1500926739.27,49075,21.38,73418.0,5.73,3.67,4.49,0,*78
1500926740.44,49076,21.38,73416.0,5.71,3.63,4.41,0,*75
1500926741.61,49077,21.38,73418.3,5.71,3.63,4.41,0,*74
1500926742.78,49078,21.38,73412.3,5.71,3.63,4.53,0,*78
1500926743.98,49079,21.38,73412.3,5.75,3.67,4.45,0,*7E
1500926745.15,49080,21.38,73414.0,5.71,3.63,4.41,0,*7C
1500926746.38,49081,21.38,73414.5,5.73,3.67,4.45,0,*7F
1500926747.59,49082,21.38,73418.8,5.71,3.75,4.41,0,*79
1500926748.81,49083,21.38,73408.5,5.73,3.79,4.45,0,*72
1500926750.01,49084,21.38,73406.3,5.71,3.75,4.33,0,*7A
1500926751.19,49085,21.38,73406.0,5.71,3.63,4.41,0,*79
1500926752.36,49086,21.38,73400.8,5.71,3.63,4.41,0,*7A
1500926753.53,49087,21.38,73398.5,5.71,3.63,4.41,0,*7B
1500926754.76,49088,21.38,73392.5,5.73,3.75,4.45,0,*75
1500926755.96,49089,21.38,73388.3,5.73,3.63,4.33,0,*72
1500926757.15,49090,21.38,73394.0,5.73,3.63,4.37,0,*7E
1500926758.36,49091,21.38,73394.0,5.71,3.75,4.41,0,*7B
1500926759.56,49092,21.38,73386.8,5.75,3.67,4.49,0,*77
1500926760.78,49093,21.38,73386.3,5.73,3.67,4.49,0,*70
1500926762.01,49094,21.38,73394.0,5.73,3.67,4.45,0,*7B
1500926763.23,49095,21.38,73388.5,5.73,3.75,4.49,0,*75
1500926764.43,49096,21.38,73388.3,5.73,3.63,4.37,0,*78
1500926765.66,49097,21.38,73394.3,5.73,3.67,4.37,0,*7D
1500926766.86,49098,21.38,73400.5,5.75,3.75,4.49,0,*7E
1500926768.07,49099,21.38,73402.3,5.75,3.79,4.57,0,*7C
1500926769.26,49100,21.38,73402.0,5.73,3.85,4.49,0,*77
1500926770.49,49101,21.38,73408.8,5.73,3.67,4.37,0,*73
1500926771.72,49102,21.38,73408.3,5.73,3.67,4.37,0,*70
1500926772.95,49103,21.38,73410.0,5.73,3.75,4.45,0,*77
1500926774.15,49104,21.38,73414.5,5.71,3.71,4.41,0,*72
1500926775.38,49105,21.38,73410.5,5.73,3.75,4.57,0,*72
1500926776.61,49106,21.38,73408.8,5.73,3.79,4.57,0,*7D
1500926777.81,49107,21.38,73412.3,5.75,3.79,4.57,0,*7A
1500926779.04,49108,21.38,73414.3,5.73,3.75,4.45,0,*7C
1500926780.27,49109,21.38,73408.0,5.73,3.75,4.57,0,*7E
1500926781.47,49110,21.38,73408.5,5.75,3.89,4.59,0,*7D
1500926782.67,49111,21.38,73410.5,5.75,3.79,4.57,0,*7D
1500926783.88,49112,21.38,73410.5,5.75,3.79,4.57,0,*7E
1500926785.07,49113,21.38,73410.3,5.75,3.79,4.49,0,*70
1500926786.27,49114,21.38,73408.3,5.75,3.79,4.49,0,*77
1500926787.49,49115,21.38,73414.0,5.73,3.75,4.49,0,*7C
1500926788.72,49116,21.38,73404.0,5.73,3.79,4.57,0,*7C
1500926789.92,49117,21.38,73406.8,5.75,3.79,4.49,0,*74
1500926791.12,49118,21.38,73404.5,5.75,3.75,4.49,0,*77
1500926792.34,49119,21.38,73404.0,5.73,3.75,4.49,0,*70
1500926793.55,49120,21.38,73398.0,5.75,3.79,4.57,0,*7F
1500926794.75,49121,21.38,73396.5,5.75,3.75,4.49,0,*7D
1500926795.95,49122,21.38,73396.3,5.75,3.75,4.45,0,*72
1500926797.18,49123,21.38,73398.8,5.73,3.75,4.37,0,*70
1500926798.41,49124,21.38,73402.8,5.73,3.67,4.45,0,*71
1500926799.64,49125,21.38,73404.3,5.73,3.67,4.37,0,*75
1500926800.84,49126,21.38,73408.8,5.75,3.67,4.49,0,*79
1500926802.05,49127,21.38,73406.5,5.75,3.75,4.45,0,*77
1500926803.25,49128,21.38,73408.3,5.75,3.67,4.45,0,*7B
1500926804.42,49129,21.38,73408.8,5.75,3.55,4.33,0,*7A
1500926805.58,49130,21.38,73414.3,5.75,3.55,4.27,0,*77
1500926806.77,49131,21.38,73410.5,5.73,3.55,4.27,0,*70
1500926807.97,49132,21.38,73416.5,5.73,3.63,4.33,0,*73
1500926809.2,49133,21.38,73414.0,5.73,3.67,4.33,0,*76
1500926810.37,49134,21.38,73408.3,5.75,3.63,4.33,0,*73
1500926811.54,49135,21.38,73410.5,5.71,3.59,4.33,0,*7F
1500926812.77,49136,21.38,73408.0,5.73,3.67,4.33,0,*73
1500926813.95,49137,21.38,73404.5,5.71,3.63,4.41,0,*71
1500926815.11,49138,21.38,73398.3,5.75,3.63,4.49,0,*72
1500926816.31,49139,21.38,73398.3,5.73,3.63,4.37,0,*7C
1500926817.54,49140,21.38,73400.5,5.73,3.67,4.45,0,*73
1500926818.77,49141,21.38,73402.8,5.73,3.67,4.37,0,*77
1500926819.94,49142,21.38,73400.5,5.71,3.63,4.33,0,*76
1500926821.11,49143,21.38,73404.8,5.71,3.59,4.41,0,*7B
1500926822.31,49144,21.38,73408.0,5.73,3.63,4.37,0,*76
1500926823.53,49145,21.38,73408.0,5.73,3.53,4.27,0,*75
1500926824.74,49146,21.38,73408.0,5.73,3.53,4.27,0,*76
1500926825.93,49147,21.38,73406.0,5.73,3.55,4.33,0,*74
1500926827.15,49148,21.38,73404.8,5.73,3.53,4.33,0,*7D
1500926828.34,49149,21.38,73402.0,5.73,3.55,4.23,0,*7B
1500926829.53,49150,21.38,73400.0,5.71,3.45,4.19,0,*79
1500926830.72,49151,21.38,73394.8,5.71,3.49,4.19,0,*74
1500926831.94,49152,21.38,73404.3,5.71,3.53,4.31,0,*76
1500926833.11,49153,21.38,73404.0,5.71,3.63,4.33,0,*76
1500926834.31,49154,21.38,73396.3,5.75,3.67,4.49,0,*7C
1500926835.48,49155,21.38,73398.8,5.71,3.63,4.41,0,*75
1500926836.66,49156,21.38,73400.0,5.75,3.63,4.37,0,*73
1500926837.83,49157,21.38,73398.3,5.71,3.59,4.33,0,*7B
1500926839.0,49158,21.38,73396.5,5.71,3.63,4.41,0,*78
1500926840.17,49159,21.38,73394.3,5.71,3.63,4.45,0,*7D
1500926841.39,49160,21.38,73398.3,5.73,3.67,4.49,0,*7D
1500926842.56,49161,21.38,73394.0,5.71,3.63,4.53,0,*71
1500926843.73,49162,21.38,73394.8,5.71,3.63,4.33,0,*74
1500926844.9,49163,21.38,73386.3,5.71,3.63,4.41,0,*70
1500926846.13,49164,21.38,73394.0,5.73,3.67,4.37,0,*70
1500926847.31,49165,21.38,73392.5,5.75,3.63,4.37,0,*73
1500926848.48,49166,21.38,73394.5,5.71,3.63,4.41,0,*75
1500926849.68,49167,21.38,73396.0,5.73,3.63,4.37,0,*77
1500926850.91,49168,21.38,73394.8,5.73,3.67,4.45,0,*79
1500926852.11,49169,21.38,73394.5,5.73,3.63,4.37,0,*79
1500926853.28,49170,21.38,73394.0,5.71,3.59,4.33,0,*7E
1500926854.5,49171,21.38,73390.3,5.71,3.53,4.31,0,*77
1500926855.69,49172,21.38,73392.0,5.71,3.37,4.07,0,*73
1500926856.92,49173,21.38,73398.5,5.73,3.41,4.07,0,*71
1500926858.11,49174,21.38,73402.0,5.71,3.33,4.07,0,*71
1500926859.3,49175,21.38,73404.0,5.71,3.45,4.19,0,*7E
1500926860.49,49176,21.38,73400.3,5.71,3.45,4.15,0,*71
1500926861.71,49177,21.38,73408.3,5.69,3.37,4.15,0,*7C
1500926862.93,49178,21.38,73406.5,5.69,3.45,4.15,0,*76
1500926864.14,49179,21.38,73400.8,5.69,3.49,4.23,0,*7E
1500926865.36,49180,21.38,73406.3,5.69,3.49,4.23,0,*78
1500926866.57,49181,21.38,73406.8,5.69,3.49,4.19,0,*70
1500926867.78,49182,21.38,73404.0,5.69,3.49,4.19,0,*73
1500926869.0,49183,21.38,73404.5,5.69,3.53,4.23,0,*70
1500926870.21,49184,21.38,73400.8,5.69,3.53,4.23,0,*77
1500926871.42,49185,21.38,73402.3,5.69,3.49,4.19,0,*74
1500926872.64,49186,21.38,73400.3,5.69,3.53,4.23,0,*75
1500926873.83,49187,21.38,73406.8,5.67,3.49,4.27,0,*75
1500926875.07,49188,21.38,73404.8,5.69,3.53,4.31,0,*78
1500926876.23,49189,21.38,73404.3,5.67,3.55,4.27,0,*76
1500926877.43,49190,21.38,73410.5,5.69,3.59,4.33,0,*79
1500926878.65,49191,21.38,73400.0,5.69,3.53,4.33,0,*72
1500926879.85,49192,21.38,73400.5,5.69,3.59,4.33,0,*7B
1500926881.02,49193,21.38,73402.5,5.71,3.63,4.33,0,*7A
1500926882.22,49194,21.38,73400.8,5.67,3.55,4.31,0,*7D
1500926883.41,49195,21.38,73406.8,5.69,3.59,4.33,0,*7C
1500926884.61,49196,21.38,73402.3,5.73,3.63,4.33,0,*7D
1500926885.78,49197,21.38,73402.8,5.71,3.59,4.33,0,*77
1500926886.95,49198,21.38,73404.0,5.71,3.63,4.41,0,*74
1500926888.16,49199,21.38,73402.0,5.67,3.67,4.37,0,*77
1500926889.34,49200,21.38,73402.8,5.67,3.59,4.33,0,*7D
1500926890.51,49201,21.38,73396.5,5.71,3.59,4.41,0,*7E
1500926891.68,49202,21.38,73400.8,5.71,3.59,4.33,0,*78
1500926892.85,49203,21.38,73398.5,5.71,3.59,4.33,0,*79
1500926894.05,49204,21.38,73396.8,5.69,3.63,4.33,0,*7E
1500926895.25,49205,21.38,73396.8,5.69,3.63,4.33,0,*7F
1500926896.45,49206,21.38,73396.8,5.73,3.63,4.37,0,*73
1500926897.66,49207,21.38,73392.3,5.69,3.53,4.23,0,*7F
1500926898.9,49208,21.38,73386.8,5.69,3.53,4.31,0,*73
1500926900.13,49209,21.38,73388.0,5.69,3.59,4.31,0,*78
1500926901.3,49210,21.38,73384.0,5.71,3.59,4.33,0,*7B
1500926902.49,49211,21.38,73384.5,5.71,3.59,4.31,0,*78
1500926903.68,49212,21.38,73386.0,5.69,3.63,4.23,0,*78
1500926904.9,49213,21.38,73390.8,5.69,3.53,4.23,0,*7A
1500926906.11,49214,21.38,73388.8,5.69,3.49,4.23,0,*76
1500926907.36,49215,21.38,73392.5,5.69,3.53,4.31,0,*7F
1500926908.58,49216,21.38,73394.0,5.69,3.59,4.31,0,*76
1500926909.8,49217,21.38,73392.8,5.69,3.59,4.31,0,*77
1500926911.0,49218,21.38,73398.5,5.69,3.63,4.33,0,*73
1500926912.22,49219,21.38,73392.8,5.69,3.71,4.41,0,*74
1500926913.42,49220,21.38,73398.5,5.69,3.63,4.33,0,*78
1500926914.62,49221,21.38,73396.5,5.69,3.59,4.33,0,*70
1500926915.82,49222,21.38,73402.5,5.69,3.59,4.33,0,*73
1500926917.04,49223,21.38,73402.0,5.69,3.59,4.31,0,*70
1500926918.21,49224,21.38,73402.5,5.71,3.59,4.33,0,*7C
1500926919.39,49225,21.38,73402.8,5.67,3.59,4.37,0,*7E
1500926920.56,49226,21.38,73402.0,5.71,3.63,4.33,0,*77
1500926921.75,49227,21.38,73400.3,5.67,3.49,4.27,0,*7C
1500926922.97,49228,21.38,73400.3,5.69,3.63,4.31,0,*72
1500926924.16,49229,21.38,73400.0,5.69,3.63,4.33,0,*71